Simultaneous Nadir Overpasses (SNOs) Predictions

Prediction of SNOs between GOES-15 and NPP Satellite Orbit:

Table of predicted SNOs for the next 14.0 days since TLE Epoch: 4/25/2014
Index Date Time (GOES-15) GOES-15 Lat,Lon NPP Lat,Lon Distance(km) Time Diff (sec)
1 04/26/2014 22:33:07 -0.03,-135.37 -0.21,-136.11 84.57 80
2 04/27/2014 22:17:05 -0.03,-135.35 0.82,-131.58 430.25 80
3 04/29/2014 10:38:55 0.03,-135.34 0.36,-136.85 172.30 80
4 04/30/2014 10:17:32 0.03,-135.32 -0.62,-132.31 342.05 80
5 05/01/2014 22:39:31 -0.03,-135.29 -0.55,-137.62 265.77 80
6 05/02/2014 22:23:27 -0.03,-135.27 0.43,-133.08 248.53 80
7 05/04/2014 10:45:18 0.04,-135.25 0.75,-138.35 354.50 80
8 05/05/2014 10:23:55 0.04,-135.22 -0.29,-133.83 159.37 80
9 05/06/2014 22:45:54
